Regional Weather Roundup
Issued by NWS

Home | Current Version | Previous Version | Graphics & Text | Print | Product List | Glossary On
Versions: 1 2 3 4 5 6 7 8 9 10 11 12 13 14 15 16 17 18 19 20 21 22 23 24 25 26 27 28 29 30 31 32 33 34 35 36 37 38 39 40 41 42 43 44 45 46 47 48 49 50
000
ASUS43 KLMK 010302
RWRKY
KENTUCKY REGIONAL WEATHER ROUNDUP
NATIONAL WEATHER SERVICE LOUISVILLE KY
1100 PM EDT TUE SEP 30 2014

NOTE "FAIR" INDICATES FEW OR NO CLOUDS BELOW 12,000 FEET
WITH NO SIGNIFICANT WEATHER AND/OR OBSTRUCTIONS TO VISIBILITY.

KYZ001>023-026-027-061>063-070>075-010400-
WESTERN AND SOUTH CENTRAL KENTUCKY

CITY           SKY/WX    TMP DP  RH WIND       PRES   REMARKS
PADUCAH        PTCLDY    62  57  83 CALM      29.90R
HENDERSON      NOT AVBL
OWENSBORO      CLEAR     69  60  73 CALM      29.92R
HOPKINSVILLE   PTCLDY    70  56  61 SW1       29.91S
BOWLING GREEN  CLEAR     65  56  72 CALM      29.93R
GLASGOW        CLEAR     61  57  88 CALM      29.93S
$$

KYZ024-025-028>034-038-045-046-053-010400-
NORTH CENTRAL KENTUCKY

CITY           SKY/WX    TMP DP  RH WIND       PRES   REMARKS
LOUISVILLE/SDF CLEAR     70  61  73 N8        29.93S
LOUISVILLE/LOU CLEAR     69  61  75 N5        29.94R
FORT KNOX      CLEAR     65  60  81 NE6       29.93R
$$

KYZ035>037-039>044-047>052-055>060-089>105-010400-
NORTHEAST KENTUCKY

CITY           SKY/WX    TMP DP  RH WIND       PRES   REMARKS
LEXINGTON      CLEAR     67  59  75 NE8       29.95R
COVINGTON      PTCLDY    61  52  72 NE12      29.97R
FRANKFORT      CLEAR     67  59  75 CALM      29.94R
$$

KYZ054-064>069-076>088-106>120-010400-
SOUTHEAST KENTUCKY

CITY           SKY/WX    TMP DP  RH WIND       PRES   REMARKS
JACKSON        CLEAR     66  57  72 CALM      29.96R
LONDON         PTCLDY    62  58  86 CALM      29.96S
SOMERSET       MOCLDY    61  59  94 CALM      29.96S
MIDDLESBORO    CLEAR     58  56  94 CALM      29.98S
MONTICELLO     CLEAR     57  56  97 CALM      29.97R
$$



USA.gov is the U.S. government's official web portal to all federal, state and local government web resources and services.